Temperature
27 28 29 28 27 27 25 24 23 23 22 20 20 19 19 18 17 17 17 16 15 14 14 13 13 13 12 12 12 11 11 11 11 11 10 10 10 10 10 10 10 10 10 10
26 28 28 26 25 25 24 24 23 22 22 20 20 19 18 18 17 17 16 16 15 14 14 13 13 12 12 12 11 11 11 11 11 10 10 10 10 10 10 10 10 10 10 10
25 27 27 24 22 23 22 23 22 21 21 20 19 18 18 17 17 16 15 15 14 14 13 13 12 12 12 11 11 11 11 10 10 10 10 10 10 10 10 10 9 9 9 9
25 26 23 21 23 22 22 22 22 21 20 19 18 17 17 17 16 15 14 14 14 13 13 12 12 12 11 11 11 11 10 10 10 10 10 10 9 9 9 9 9 9 9 9
25 24 23 22 21 21 20 20 19 18 18 18 17 16 17 16 15 14 14 13 13 12 12 12 11 11 11 11 10 10 10 10 10 10 9 9 9 9 9 8 8 8 8 9
24 23 22 20 21 21 21 20 18 18 17 17 16 16 16 15 14 14 13 13 12 12 12 11 11 11 10 10 10 9 9 9 9 9 9 8 8 8 8 8 8 8 8 8
24 23 22 21 21 21 19 18 17 17 16 16 15 15 15 14 14 13 13 12 12 12 11 11 10 10 10 9 9 9 9 8 8 8 8 8 8 8 8 8 8 8 8 8
23 22 21 21 20 19 18 17 17 16 16 15 15 14 14 14 13 13 12 12 12 11 11 10 10 10 9 9 8 8 8 8 8 7 7 8 8 8 8 8 7 8 8 8
22 21 21 20 19 18 17 17 16 15 15 15 14 14 14 13 13 12 12 11 11 11 10 10 9 9 8 8 8 7 7 7 7 7 7 7 7 7 7 7 7 8 8 8
21 22 21 20 19 18 17 16 15 15 15 14 14 14 13 13 12 12 11 11 10 10 9 9 8 8 7 7 7 7 6 6 6 6 6 7 7 7 7 7 7 8 8 8
21 21 19 19 17 17 16 15 15 15 14 14 14 13 13 12 12 11 10 10 9 9 8 7 7 7 6 6 6 6 6 6 6 6 6 6 6 7 7 7 7 7 7 7
20 19 18 17 16 16 15 15 15 14 14 14 13 13 12 12 11 10 10 9 8 7 7 6 6 6 6 5 5 5 5 5 5 5 6 6 6 6 7 7 7 7 7 7
18 17 17 16 16 15 15 15 14 14 14 13 13 12 11 11 10 9 8 8 7 6 6 5 5 5 5 5 5 5 5 5 5 5 5 5 6 6 6 7 7 7 7 7
17 17 16 16 15 15 14 14 14 13 13 13 12 11 10 9 9 8 7 7 6 5 5 5 5 5 5 5 5 5 5 5 5 5 5 5 5 6 6 6 6 7 7 7
17 16 16 15 15 14 14 14 13 13 12 12 11 10 9 9 8 7 6 6 5 5 5 5 4 5 5 5 5 5 5 5 5 5 5 5 5 6 6 6 6 6 7 7
16 16 15 15 14 14 13 13 13 12 12 11 10 9 8 8 7 6 6 5 5 5 4 4 4 4 4 5 5 5 5 5 5 5 5 5 5 6 6 6 6 6 6 7
16 15 15 14 14 13 13 12 12 11 11 10 9 9 8 7 6 6 5 5 5 5 4 4 4 5 5 5 5 5 5 5 5 5 5 5 6 6 6 6 6 6 6 7
15 15 14 14 13 13 12 12 11 10 10 9 9 8 7 6 5 5 5 5 5 5 5 5 5 5 5 5 5 5 5 5 5 5 6 6 6 6 6 6 6 6 7 7
15 14 14 13 13 12 11 11 10 10 9 9 8 7 6 6 5 5 5 4 5 5 5 5 5 5 5 5 5 5 5 5 6 6 6 6 6 6 6 6 7 7 7 7
14 14 13 12 12 11 11 10 10 9 9 8 7 7 6 5 5 5 4 4 5 5 5 5 5 5 5 5 5 6 6 6 6 6 6 6 6 6 7 7 7 7 7 7
14 13 12 12 11 11 10 10 9 9 8 8 7 6 6 5 5 5 4 4 5 5 5 5 5 5 5 6 6 6 6 6 6 6 6 6 7 7 7 7 7 7 7 7
13 12 11 11 11 10 10 9 9 9 8 7 7 6 6 5 5 5 5 4 5 5 5 5 6 6 6 6 6 6 7 7 7 7 7 7 7 7 7 7 8 8 8 8
12 11 11 10 10 10 10 10 9 8 8 7 7 6 5 5 5 4 4 5 5 5 5 6 6 6 7 7 7 7 7 7 7 7 7 7 8 8 8 8 8 8 8 8
11 11 10 10 10 10 10 9 9 8 8 7 7 6 5 5 5 5 5 5 5 6 6 6 7 7 7 7 7 8 8 7 7 8 8 8 8 8 8 8 9 9 9 9
11 11 11 10 10 10 10 9 9 8 8 7 6 6 5 5 5 5 5 5 6 6 7 7 7 7 8 8 8 8 8 8 8 8 9 9 9 9 9 9 9 9 9 10
11 11 11 10 10 10 9 9 8 8 7 7 6 6 5 5 5 5 5 6 6 6 7 7 7 8 8 8 8 9 9 9 9 9 9 9 10 10 10 10 10 10 10 10
12 12 11 11 10 9 9 8 8 8 7 6 6 5 5 5 5 5 5 6 6 6 7 7 8 8 8 8 9 9 9 9 10 10 10 10 10 10 10 10 10 10 11 11
Wind_Speed
15 17 14 10 8 9 9 10 10 14 12 6 6 8 10 12 14 16 17 15 11 9 9 9 10 9 10 10 10 10 10 10 10 10 10 10 10 10 10 10 12 10 10 10
16 14 10 6 9 9 9 10 11 14 11 6 8 11 13 16 18 20 18 14 14 13 13 12 11 12 11 10 10 9 10 11 10 10 11 11 10 11 11 10 10 10 10 10
14 13 9 5 10 10 10 11 13 15 12 11 13 15 17 19 21 18 15 17 17 16 13 11 12 11 11 11 10 10 11 12 11 11 11 11 14 12 11 10 11 10 10 10
12 12 6 7 8 9 10 12 13 12 12 14 17 19 20 20 15 17 20 20 18 17 16 14 13 12 11 13 12 12 12 12 12 12 12 11 11 11 10 9 10 10 10 11
7 11 3 5 7 9 12 13 12 13 16 20 21 22 19 17 20 21 20 18 17 17 19 15 14 14 13 14 14 15 15 13 13 12 12 12 12 11 10 10 10 11 11 11
9 11 8 5 9 11 13 7 13 18 20 21 23 21 18 21 22 20 18 17 17 19 18 15 13 12 14 17 16 16 15 14 13 12 13 13 12 11 11 10 11 12 11 11
9 11 4 8 13 15 11 11 18 19 20 21 20 20 21 23 22 20 18 18 17 16 15 13 13 12 15 16 15 15 15 14 13 12 12 13 12 11 10 11 11 11 12 11
8 9 4 11 13 11 11 14 17 19 21 22 22 23 24 23 21 21 21 21 20 15 14 12 12 13 15 15 15 14 14 15 14 13 15 15 11 10 10 10 10 11 10 11
5 6 6 8 10 10 12 16 18 20 21 22 24 25 25 23 21 21 20 19 19 18 15 13 13 13 17 16 15 16 16 15 15 15 13 13 12 12 11 10 9 10 9 8
6 7 9 10 12 15 16 17 19 20 22 23 24 26 25 22 20 19 19 19 18 18 19 18 16 16 16 17 16 15 16 15 14 13 14 12 10 10 9 9 8 8 7 6
9 9 11 13 16 17 18 19 20 21 22 23 25 25 23 20 19 18 19 18 18 18 19 19 18 17 18 17 16 17 17 15 14 13 13 11 11 9 10 9 8 7 6 4
8 10 11 15 16 18 19 20 21 22 23 23 23 23 23 22 19 19 20 19 19 19 20 21 20 19 19 17 16 16 15 14 11 10 10 10 10 10 11 10 10 10 8 5
7 11 13 15 17 18 19 21 22 22 23 24 23 22 23 21 20 21 21 21 20 20 21 21 21 20 19 17 16 16 14 13 11 10 10 10 9 8 8 7 8 10 10 9
8 11 14 15 17 18 19 22 22 23 22 22 22 22 22 22 22 22 22 22 22 22 22 21 21 20 19 17 16 15 14 14 12 10 9 9 8 8 7 6 5 5 6 9
10 12 14 15 16 18 19 21 22 22 23 23 22 22 22 22 22 22 22 22 22 22 22 21 21 20 18 17 15 14 12 10 9 9 8 8 8 7 7 7 6 5 4 5
12 13 14 15 17 19 20 22 22 23 23 23 22 23 23 22 21 23 22 21 22 22 22 21 20 19 17 16 14 11 10 13 11 8 8 8 7 7 6 6 6 6 5 6
12 13 15 16 17 19 20 21 21 22 22 23 23 23 23 23 23 22 22 22 21 20 19 18 18 18 16 14 13 10 9 9 10 8 7 6 6 5 5 5 6 6 6 8
10 12 13 15 16 18 19 20 20 21 21 22 22 22 22 22 22 22 23 22 21 20 18 18 18 18 15 13 11 8 7 7 5 5 5 5 5 4 5 5 6 7 6 9
11 12 13 15 16 16 18 19 19 20 20 20 21 21 20 20 20 21 21 22 21 19 19 20 21 17 14 13 13 8 7 6 4 3 3 3 4 4 5 5 6 7 9 10
11 12 13 15 16 16 17 18 19 18 18 19 20 20 20 20 21 21 21 19 15 16 20 21 19 15 13 12 14 8 7 5 3 2 2 2 3 4 5 7 8 9 10 10
10 12 13 14 15 16 16 17 17 18 18 19 18 19 19 20 20 19 18 17 18 19 21 20 15 12 12 13 13 8 6 4 3 1 0 2 3 4 5 7 8 9 9 10
9 11 12 14 15 15 15 15 16 17 18 18 18 18 19 19 20 19 17 14 17 21 18 14 13 15 17 15 9 7 6 4 2 1 1 2 3 4 5 7 8 9 9 10
8 9 11 13 14 15 15 15 16 16 16 18 18 18 18 17 15 16 17 16 17 21 17 14 19 22 19 10 8 7 6 5 3 2 1 2 3 4 5 8 8 9 9 10
7 9 10 11 12 13 14 15 14 13 15 15 16 17 16 15 15 14 14 18 20 21 16 16 20 21 16 8 7 6 5 5 4 3 1 2 3 5 6 7 8 8 9 10
7 8 9 10 11 11 12 13 14 14 15 14 17 17 15 12 14 15 16 18 21 19 16 18 20 20 13 9 8 7 5 4 4 3 2 2 4 5 6 7 7 8 8 8
6 7 6 7 7 7 10 11 11 12 13 14 15 15 15 14 15 15 14 18 21 19 16 14 16 16 13 12 11 9 6 5 3 2 2 3 5 6 7 8 10 8 7 7
6 5 4 6 7 8 9 10 11 11 12 13 14 14 15 15 15 16 17 16 16 16 15 14 14 13 13 13 12 11 9 7 5 4 3 4 5 5 6 7 6 7 7 8
Wind_Direction
307 307 312 324 345 2 1 351 338 339 352 32 25 351 338 332 327 321 316 313 314 312 305 303 302 297 294 291 290 288 287 284 278 275 274 271 272 273 271 270 278 279 283 289
306 312 317 353 22 16 5 356 341 331 337 15 348 337 332 329 324 317 317 326 329 321 315 313 311 306 303 298 293 288 285 285 285 282 281 277 273 270 272 272 274 277 284 289
307 308 304 30 30 15 358 347 339 328 341 353 339 333 330 327 316 321 337 330 320 316 314 310 307 301 297 297 294 290 287 288 286 284 282 279 283 280 275 277 279 278 281 284
302 314 330 73 42 17 347 340 344 348 355 344 332 328 323 314 328 337 327 321 318 316 312 306 303 301 298 297 293 290 288 286 284 283 285 284 283 283 282 282 282 282 279 279
325 337 61 95 34 4 340 329 25 2 342 333 330 320 314 331 336 325 318 316 314 311 309 305 302 300 297 296 295 293 292 289 289 287 288 286 284 284 285 283 281 277 275 271
321 325 341 55 12 345 318 302 19 348 336 330 325 319 320 327 320 317 318 315 311 309 306 302 302 302 298 296 294 293 292 291 290 287 286 286 284 282 282 281 279 277 272 270
333 321 48 25 354 343 327 335 341 332 328 324 322 315 313 317 319 318 314 312 310 307 305 304 302 297 295 295 293 292 292 290 288 285 283 281 276 273 272 273 274 273 273 272
338 326 20 7 356 355 328 327 327 326 324 321 317 315 316 317 316 315 314 313 313 310 304 302 302 302 299 296 296 296 294 291 289 286 285 285 282 281 276 270 270 269 267 267
337 325 344 351 346 347 342 331 327 324 321 319 318 318 317 316 315 315 315 315 314 311 309 309 308 304 301 300 300 297 293 290 288 287 283 279 276 275 275 267 262 263 263 261
316 324 349 347 350 347 339 329 324 322 321 320 318 317 316 317 317 317 318 318 317 317 314 311 310 307 303 302 300 297 294 292 289 286 282 278 273 269 268 267 263 261 261 257
314 353 343 339 344 336 328 328 325 322 321 320 318 318 320 320 321 321 321 321 322 317 315 314 314 310 307 305 303 299 295 291 287 284 281 278 273 265 262 259 257 255 259 256
336 348 327 325 331 329 330 327 325 324 322 322 323 324 325 323 324 324 323 323 321 320 317 314 310 306 303 301 299 295 292 289 286 283 278 272 270 272 257 249 248 233 225 236
335 330 323 322 325 330 327 327 326 325 325 327 329 329 327 327 327 326 323 323 322 319 314 311 308 305 303 302 299 295 289 286 282 278 274 269 265 263 266 258 236 224 217 211
336 330 324 325 328 329 330 327 327 327 329 331 330 331 331 329 327 326 325 323 321 317 314 313 311 308 306 305 300 294 289 284 278 272 266 264 262 256 253 250 242 229 218 204
336 330 324 327 329 331 329 329 331 331 332 333 334 335 332 330 329 327 325 325 323 319 317 315 313 311 310 307 301 294 288 281 276 271 263 259 256 250 244 241 232 223 201 173
326 326 327 330 330 331 332 333 333 332 334 334 336 335 333 331 329 328 328 327 324 321 319 317 316 316 316 311 305 297 287 280 278 272 263 254 247 242 235 224 212 205 193 171
326 327 331 332 332 332 333 333 333 334 334 335 335 334 334 334 332 331 329 327 324 320 319 319 318 318 316 312 307 302 297 287 277 269 257 249 240 234 223 208 200 189 181 167
324 325 332 333 332 332 333 334 335 335 335 336 336 337 336 336 334 331 329 327 325 324 326 327 326 325 318 313 309 301 297 292 282 269 259 250 238 218 200 193 187 176 162 160
327 334 336 336 335 335 334 334 336 335 336 339 339 337 335 334 333 330 329 329 329 331 333 331 327 326 322 321 320 310 305 297 287 268 248 232 222 194 180 176 168 161 158 159
333 336 336 336 338 337 335 337 336 335 339 342 339 337 337 337 336 333 332 330 330 332 329 327 328 328 328 332 329 321 317 314 308 282 234 205 187 170 167 163 161 160 161 164
333 335 337 337 337 337 338 336 335 338 342 343 341 340 338 337 336 336 334 333 333 335 333 326 330 335 334 332 324 325 327 333 326 314 217 159 159 158 155 155 157 158 161 166
335 336 336 335 334 335 335 334 338 341 343 343 343 343 341 339 338 336 335 335 332 333 334 332 334 335 332 328 330 332 337 349 3 23 102 143 154 157 156 155 155 155 157 162
332 333 332 331 332 329 330 337 343 344 345 345 345 347 344 340 338 338 337 336 335 333 335 335 334 333 330 330 334 340 351 8 24 39 86 133 151 158 158 156 155 152 154 158
325 329 326 327 326 326 335 340 343 346 347 346 349 351 347 342 341 342 336 332 337 336 339 336 335 337 337 342 343 348 359 9 12 8 33 113 136 144 146 149 149 149 155 158
317 316 316 325 326 334 336 340 344 348 350 351 350 352 351 349 344 341 340 341 344 343 345 343 344 346 354 356 357 359 3 8 8 9 35 100 124 132 138 138 139 144 150 153
296 298 316 319 327 334 341 345 346 348 352 353 350 352 352 351 348 348 347 347 349 348 351 352 354 357 3 5 9 11 14 16 24 38 74 96 107 115 125 132 138 146 153 155
282 298 317 331 346 352 347 346 346 350 358 357 350 353 354 354 352 352 352 353 354 354 355 357 0 3 5 9 14 17 17 16 18 35 64 85 95 107 124 134 139 144 148 150
Height
1477 1469 1466 1468 1470 1472 1479 1485 1491 1491 1493 1496 1497 1499 1499 1498 1497 1495 1492 1490 1488 1486 1484 1482 1480 1477 1474 1471 1469 1466 1463 1460 1457 1454 1451 1448 1446 1444 1442 1440 1438 1436 1434 1432
1480 1470 1467 1473 1477 1480 1485 1488 1491 1492 1494 1496 1497 1498 1497 1496 1494 1491 1488 1485 1484 1482 1480 1477 1474 1471 1468 1465 1463 1460 1456 1453 1450 1447 1445 1442 1439 1437 1435 1433 1431 1429 1427 1426
1486 1472 1472 1488 1492 1492 1493 1492 1494 1496 1496 1496 1497 1497 1495 1493 1490 1487 1485 1483 1481 1478 1475 1472 1469 1465 1462 1459 1456 1452 1449 1446 1443 1440 1437 1435 1432 1430 1428 1426 1424 1422 1421 1419
1484 1480 1497 1502 1493 1495 1497 1494 1494 1494 1497 1498 1498 1496 1494 1491 1486 1484 1482 1479 1476 1473 1469 1466 1462 1459 1455 1451 1448 1445 1441 1438 1435 1433 1430 1427 1425 1422 1420 1418 1417 1415 1413 1412
1488 1490 1496 1499 1498 1499 1501 1499 1500 1501 1500 1498 1496 1493 1489 1487 1485 1482 1478 1475 1471 1467 1463 1458 1455 1451 1447 1443 1440 1437 1433 1430 1427 1425 1422 1419 1416 1414 1413 1411 1409 1408 1406 1405
1490 1498 1502 1506 1500 1499 1499 1497 1503 1501 1500 1497 1494 1489 1485 1484 1481 1477 1473 1469 1464 1460 1455 1451 1447 1443 1439 1435 1432 1428 1425 1422 1419 1416 1413 1411 1408 1406 1404 1403 1401 1400 1398 1398
1494 1498 1497 1503 1501 1500 1504 1507 1503 1502 1499 1496 1493 1490 1484 1479 1475 1471 1466 1462 1457 1452 1447 1443 1439 1435 1430 1426 1423 1419 1416 1412 1410 1407 1404 1402 1399 1398 1396 1395 1393 1392 1390 1390
1500 1503 1508 1504 1503 1507 1510 1505 1503 1500 1497 1493 1489 1484 1479 1474 1469 1464 1459 1454 1450 1445 1440 1435 1431 1427 1421 1417 1414 1410 1407 1403 1400 1397 1395 1393 1391 1389 1388 1387 1386 1384 1383 1382
1506 1508 1506 1505 1506 1507 1506 1504 1501 1498 1494 1489 1484 1479 1473 1468 1463 1458 1453 1447 1442 1437 1431 1427 1423 1419 1413 1408 1404 1400 1396 1393 1390 1388 1385 1384 1382 1380 1380 1379 1378 1377 1377 1376
1504 1501 1503 1505 1505 1505 1504 1502 1498 1495 1490 1485 1479 1474 1468 1462 1456 1451 1446 1440 1435 1429 1424 1418 1414 1409 1404 1399 1394 1390 1386 1383 1380 1378 1376 1374 1373 1372 1372 1372 1371 1371 1371 1371
1503 1503 1505 1504 1505 1504 1501 1498 1495 1491 1487 1481 1475 1468 1463 1456 1451 1445 1440 1434 1428 1422 1416 1410 1404 1399 1394 1389 1384 1380 1376 1373 1370 1368 1367 1365 1364 1364 1364 1364 1365 1366 1366 1367
1508 1508 1508 1506 1504 1502 1498 1495 1491 1486 1481 1476 1471 1464 1458 1452 1446 1440 1434 1428 1421 1415 1408 1401 1395 1388 1383 1379 1374 1369 1365 1363 1361 1359 1357 1357 1356 1356 1356 1358 1358 1359 1361 1363
1509 1508 1507 1505 1502 1499 1496 1492 1488 1483 1477 1471 1466 1461 1454 1448 1441 1435 1428 1421 1414 1407 1399 1392 1385 1378 1373 1368 1364 1360 1356 1353 1352 1350 1349 1348 1348 1349 1349 1351 1352 1354 1356 1358
1508 1507 1505 1502 1500 1497 1493 1489 1484 1479 1474 1468 1462 1456 1450 1444 1437 1430 1422 1415 1407 1399 1391 1384 1376 1369 1364 1359 1354 1350 1347 1345 1343 1342 1341 1341 1341 1342 1343 1345 1346 1348 1351 1353
1506 1505 1503 1500 1497 1494 1490 1485 1480 1475 1470 1464 1459 1453 1446 1439 1432 1424 1417 1408 1400 1392 1384 1376 1369 1361 1356 1351 1346 1342 1339 1337 1336 1335 1334 1335 1335 1336 1338 1340 1341 1343 1346 1349
1504 1502 1500 1498 1495 1491 1487 1482 1477 1472 1466 1461 1455 1449 1443 1435 1428 1420 1411 1403 1394 1385 1377 1369 1362 1355 1349 1344 1339 1336 1333 1331 1329 1328 1328 1329 1330 1332 1333 1335 1337 1340 1343 1346
1502 1500 1497 1495 1492 1488 1485 1480 1475 1470 1464 1458 1452 1445 1438 1431 1423 1414 1406 1398 1389 1381 1372 1364 1356 1350 1344 1339 1335 1331 1328 1326 1324 1324 1324 1325 1326 1328 1330 1332 1334 1337 1341 1344
1500 1498 1496 1493 1490 1486 1482 1478 1473 1468 1462 1456 1449 1442 1435 1427 1419 1410 1401 1392 1384 1376 1368 1361 1353 1346 1340 1335 1331 1328 1325 1323 1322 1321 1321 1322 1323 1325 1327 1329 1332 1336 1340 1344
1497 1495 1493 1491 1488 1484 1480 1475 1470 1465 1459 1453 1447 1440 1433 1425 1416 1407 1398 1389 1380 1372 1364 1357 1350 1344 1338 1333 1329 1326 1322 1320 1319 1319 1319 1320 1322 1323 1326 1329 1332 1336 1340 1344
1495 1493 1491 1488 1485 1482 1478 1473 1468 1463 1457 1451 1444 1437 1429 1422 1413 1405 1395 1387 1380 1372 1363 1355 1348 1342 1337 1332 1328 1325 1322 1320 1319 1319 1319 1320 1321 1323 1326 1329 1333 1337 1341 1346
1492 1491 1488 1486 1483 1479 1475 1471 1466 1460 1455 1449 1442 1435 1428 1419 1411 1403 1393 1385 1377 1370 1362 1354 1348 1343 1338 1333 1329 1325 1323 1321 1320 1319 1319 1321 1322 1325 1327 1331 1334 1338 1342 1347
1490 1488 1486 1483 1480 1477 1473 1469 1464 1459 1453 1447 1441 1434 1426 1417 1409 1401 1394 1386 1377 1369 1362 1355 1349 1344 1338 1334 1330 1327 1325 1323 1322 1321 1321 1323 1324 1327 1330 1333 1336 1340 1344 1349
1488 1486 1484 1481 1478 1475 1471 1467 1462 1457 1452 1446 1440 1433 1425 1418 1410 1401 1392 1385 1377 1370 1362 1356 1350 1345 1340 1335 1332 1330 1328 1326 1325 1324 1324 1325 1327 1329 1332 1335 1339 1343 1347 1351
1485 1484 1481 1479 1476 1472 1469 1465 1461 1456 1451 1446 1440 1433 1425 1417 1409 1402 1395 1386 1379 1371 1364 1358 1353 1347 1342 1338 1335 1333 1331 1329 1328 1328 1328 1329 1331 1333 1335 1339 1342 1346 1350 1354
1483 1481 1479 1476 1474 1471 1467 1463 1459 1455 1450 1445 1439 1433 1426 1419 1411 1403 1396 1388 1381 1374 1368 1362 1356 1351 1347 1343 1340 1337 1336 1334 1334 1333 1333 1334 1336 1337 1340 1343 1346 1350 1353 1358
1479 1478 1476 1474 1472 1469 1466 1462 1458 1454 1449 1444 1438 1433 1426 1419 1412 1405 1398 1391 1385 1378 1372 1367 1362 1357 1352 1349 1346 1343 1342 1340 1340 1339 1340 1340 1341 1343 1345 1348 1351 1354 1357 1361
1476 1475 1473 1472 1470 1468 1465 1462 1458 1454 1450 1445 1439 1433 1427 1420 1414 1407 1400 1394 1388 1383 1378 1373 1368 1363 1359 1356 1353 1351 1349 1347 1347 1346 1346 1347 1348 1349 1351 1353 1355 1358 1362 1365